This is the latest recevied weather packets stored in our database for station/object VK6DUG. If no packets are shown the sender has not sent any weather packets the latest 10 day(s).
| Time | Temp. | Humidity | Pressure | Rain* | Wind** | Luminosity | Snow |
|---|---|---|---|---|---|---|---|
| 1788159634 | 69° F | 67% | 766.7 mmHg | 0 in | - | 483 W/m² | - |
| 1788159031 | 68° F | 69% | 766.6 mmHg | 0 in | - | 523 W/m² | - |
| 1788158429 | 69° F | 68% | 766.6 mmHg | 0 in | - | 576 W/m² | - |
| 1788157827 | 69° F | 67% | 766.5 mmHg | 0 in | - | 428 W/m² | - |
| 1788157225 | 69° F | 67% | 766.5 mmHg | 0 in | - | 444 W/m² | - |
| 1788156623 | 68° F | 70% | 766.4 mmHg | 0 in | - | 534 W/m² | - |
| 1788156021 | 69° F | 69% | 766.4 mmHg | 0 in | - | 326 W/m² | - |
| 1788155419 | 69° F | 71% | 766.3 mmHg | 0 in | - | 668 W/m² | - |
| 1788154817 | 69° F | 71% | 766.3 mmHg | 0 in | - | 578 W/m² | - |
| 1788154235 | 68° F | 68% | 766.5 mmHg | 0 in | - | 664 W/m² | - |
| 1788153632 | 68° F | 67% | 766.4 mmHg | 0 in | - | 446 W/m² | - |
| 1788153030 | 68° F | 70% | 766.5 mmHg | 0 in | - | 462 W/m² | - |
| 1788152428 | 68° F | 71% | 766.6 mmHg | 0 in | - | 347 W/m² | - |
| 1788151826 | 67° F | 76% | 766.5 mmHg | 0 in | - | 306 W/m² | - |
| 1788151224 | 67° F | 77% | 766.6 mmHg | 0 in | - | 367 W/m² | - |
| 1788150622 | 67° F | 78% | 766.6 mmHg | 0 in | - | 155 W/m² | - |
| 1788150020 | 69° F | 74% | 766.6 mmHg | 0 in | - | 333 W/m² | - |
| 1788149418 | 68° F | 74% | 766.6 mmHg | 0 in | - | 738 W/m² | - |
| 1788148815 | 68° F | 73% | 766.6 mmHg | 0 in | - | 523 W/m² | - |
| 1788148233 | 68° F | 74% | 766.6 mmHg | 0 in | - | 421 W/m² | - |
| 1788147631 | 69° F | 73% | 766.7 mmHg | 0 in | - | 605 W/m² | - |
| 1788147029 | 68° F | 74% | 766.8 mmHg | 0 in | - | 710 W/m² | - |
| 1788146427 | 68° F | 75% | 766.8 mmHg | 0 in | - | 680 W/m² | - |
| 1788145825 | 68° F | 75% | 766.8 mmHg | 0 in | - | 701 W/m² | - |
| 1788145223 | 67° F | 78% | 766.8 mmHg | 0 in | - | 688 W/m² | - |
* Rain latest hour (hover to see other rain measurements)
** Current wind speed in m/s (hover to see current wind gust speed)